Olive Branch, MS

9:49 PM CST on December 09, 2016 (GMT -0600)
Olive Branch

Weather History for KOLV - October, 2012

Change the Weather History Date:

Saturday, October 6, 2012

  Actual Average (KMEM) Record (KMEM)
Temperature  
Mean Temperature 48 °F -  
Max Temperature 55 °F 76 °F 93 °F (2007)
Min Temperature 42 °F 55 °F 39 °F (1964)
Degree Days  
Heating Degree Days 16    
Moisture  
Dew Point 44 °F    
Average Humidity 96    
Maximum Humidity 100    
Minimum Humidity 54    
Precipitation  
Precipitation 0.34 in - - ()
Sea Level Pressure  
Sea Level Pressure 30.16 in    
Wind  
Wind Speed 12 mph (NNE)    
Max Wind Speed 17 mph    
Max Gust Speed 23 mph    
Visibility 8 miles    
Events Rain    
Averages and records for this station are not official NWS values.
T = Trace of Precipitation, MM = Missing Value Source: NWS Daily Summary

Daily Weather History Graph

Daily Weather History Graph

Search for Another Location

Airport or City:

Trip Planner

Search our weather history database for the weather conditions in past years. The results will help you decide how hot, cold, wet, or windy it might be!

Date:

Astronomy

Oct. 06, 2012 Rise Set
Actual Time 6:58 AM CDT 6:35 PM CDT
Civil Twilight 6:32 AM CDT 7:00 PM CDT
Nautical Twilight 6:03 AM CDT 7:30 PM CDT
Astronomical Twilight 5:34 AM CDT 7:59 PM CDT
Moon 11:01 PM CDT (10/6) 12:42 PM CDT (10/6)
Length of Visible Light 12h 27m
Length of Day
11h 37m
Waning Gibbous, 65% of the Moon is Illuminated
Oct 6
Waning Gibbous
Oct 8
Last Quarter
Oct 15
New
Oct 21
First Quarter
Oct 29
Full

Hourly Weather History & Observations

Time (CDT) Temp. Windchill Dew Point Humidity Pressure Visibility Wind Dir Wind Speed Gust Speed Precip Events Conditions
12:15 AM 46.4 °F 40.7 °F 46.4 °F 100% 30.12 in 2.5 mi North 12.7 mph - 0.05 in   Overcast
12:35 AM 46.4 °F 39.5 °F 46.4 °F 100% 30.13 in 7.0 mi North 17.3 mph - 0.07 in   Overcast
12:55 AM 44.6 °F 38.8 °F 44.6 °F 100% 30.13 in 3.0 mi North 11.5 mph 21.9 mph 0.10 in   Overcast
1:15 AM 44.6 °F 39.2 °F 44.6 °F 100% 30.13 in 4.0 mi North 10.4 mph - 0.02 in   Overcast
1:35 AM 44.6 °F 38.8 °F 44.6 °F 100% 30.12 in 3.0 mi NNE 11.5 mph - 0.12 in   Overcast
1:55 AM 44.6 °F 37.8 °F 44.6 °F 100% 30.13 in 3.0 mi North 15.0 mph - 0.12 in   Overcast
2:15 AM 44.6 °F 38.8 °F 44.6 °F 100% 30.13 in 8.0 mi NNE 11.5 mph 16.1 mph 0.00 in   Overcast
2:35 AM 44.6 °F 37.8 °F 44.6 °F 100% 30.13 in 9.0 mi NNE 15.0 mph 20.7 mph 0.00 in   Overcast
2:55 AM 44.6 °F 38.8 °F 44.6 °F 100% 30.14 in 10.0 mi NNE 11.5 mph 18.4 mph 0.00 in   Overcast
3:15 AM 44.6 °F 39.2 °F 44.6 °F 100% 30.14 in 10.0 mi NNE 10.4 mph 16.1 mph 0.00 in   Overcast
3:35 AM 44.6 °F 38.8 °F 44.6 °F 100% 30.13 in 9.0 mi North 11.5 mph - 0.00 in   Overcast
3:55 AM 44.6 °F 38.1 °F 44.6 °F 100% 30.14 in 10.0 mi North 13.8 mph - N/A   Overcast
4:15 AM 44.6 °F 38.8 °F 44.6 °F 100% 30.14 in 9.0 mi North 11.5 mph 19.6 mph 0.00 in   Overcast
4:35 AM 44.6 °F 38.4 °F 44.6 °F 100% 30.14 in 9.0 mi NNE 12.7 mph 21.9 mph 0.00 in   Overcast
4:55 AM 44.6 °F 40.2 °F 44.6 °F 100% 30.15 in 8.0 mi North 8.1 mph - 0.00 in   Overcast
5:15 AM 44.6 °F 37.4 °F 44.6 °F 100% 30.16 in 10.0 mi North 16.1 mph 19.6 mph 0.00 in   Overcast
5:35 AM 42.8 °F 35.4 °F 42.8 °F 100% 30.16 in 10.0 mi North 15.0 mph 21.9 mph 0.00 in   Overcast
5:55 AM 42.8 °F 35.8 °F 42.8 °F 100% 30.17 in 10.0 mi NNE 13.8 mph - 0.00 in   Overcast
6:15 AM 42.8 °F 35.8 °F 42.8 °F 100% 30.18 in 9.0 mi NNE 13.8 mph - 0.00 in   Overcast
6:35 AM 42.8 °F 36.6 °F 42.8 °F 100% 30.18 in 10.0 mi NNE 11.5 mph - 0.00 in   Overcast
6:50 AM 42.8 °F 35.4 °F 42.8 °F 100% 30.19 in 9.0 mi NNE 15.0 mph 21.9 mph N/A   Overcast
7:45 AM 42.8 °F 35.1 °F 42.8 °F 100% 30.20 in 10.0 mi NNE 16.1 mph 21.9 mph N/A   Mostly Cloudy
8:55 AM 44.6 °F 38.4 °F 42.8 °F 93% 30.20 in 10.0 mi NNE 12.7 mph 17.3 mph N/A   Mostly Cloudy
9:50 AM 48.2 °F - 39.2 °F 71% 30.21 in 10.0 mi NE 12.7 mph 20.7 mph N/A   Scattered Clouds
10:45 AM 51.8 °F - 37.4 °F 58% 30.19 in 10.0 mi NE 15.0 mph 23.0 mph N/A   Mostly Cloudy
12:50 PM 55.4 °F - 39.2 °F 54% 30.17 in 10.0 mi North 13.8 mph - N/A   Mostly Cloudy
1:50 PM 53.6 °F - 39.2 °F 58% 30.17 in 7.0 mi North 11.5 mph - N/A Rain Rain
3:55 PM 48.2 °F - 46.4 °F 93% 30.13 in 8.0 mi North 8.1 mph - N/A   Overcast
4:50 PM 48.2 °F - 46.4 °F 93% 30.16 in 4.0 mi WNW 5.8 mph - N/A Rain Rain
5:50 PM 46.4 °F 42.4 °F 46.4 °F 100% 30.14 in 10.0 mi North 8.1 mph - N/A   Overcast
6:50 PM 46.4 °F 42.4 °F 46.4 °F 100% 30.16 in 10.0 mi NNE 8.1 mph - N/A   Overcast
7:50 PM 46.4 °F 42.9 °F 46.4 °F 100% 30.18 in 10.0 mi NNE 6.9 mph - N/A   Overcast
8:55 PM 44.6 °F 39.7 °F 44.6 °F 100% 30.18 in 10.0 mi NNE 9.2 mph - 0.02 in   Overcast
9:15 PM 44.6 °F 39.7 °F 44.6 °F 100% 30.18 in 8.0 mi NNE 9.2 mph - 0.00 in   Overcast
9:35 PM 42.8 °F 37.5 °F 42.8 °F 100% 30.19 in 5.0 mi NNE 9.2 mph - 0.01 in   Overcast
9:55 PM 44.6 °F 39.7 °F 44.6 °F 100% 30.18 in 8.0 mi NNE 9.2 mph - 0.01 in   Overcast
10:15 PM 44.6 °F 40.2 °F 44.6 °F 100% 30.20 in 8.0 mi North 8.1 mph - 0.01 in   Overcast
10:35 PM 44.6 °F 41.4 °F 44.6 °F 100% 30.20 in 3.0 mi NNE 5.8 mph - 0.06 in   Overcast
10:55 PM 44.6 °F 42.2 °F 44.6 °F 100% 30.21 in 5.0 mi NNW 4.6 mph - 0.07 in   Overcast
11:15 PM 44.6 °F 40.7 °F 44.6 °F 100% 30.20 in 10.0 mi NNE 6.9 mph - 0.00 in   Overcast
11:35 PM 44.6 °F 43.1 °F 44.6 °F 100% 30.21 in 5.0 mi North 3.5 mph - 0.00 in   Overcast
11:55 PM 44.6 °F 43.1 °F 44.6 °F 100% 30.19 in 5.0 mi NNE 3.5 mph - 0.02 in   Overcast